Terminal Aerodrome Forecast
Issued by NWS Jacksonville, FL

Home | Current Version | Previous Version | Text Only | Print | Product List | Glossary On
Versions: 1 2 3 4 5 6 7 8 9 10 11 12 13 14 15 16 17 18 19 20 21 22 23 24
000
FTUS42 KJAX 311939 AAB
TAFJAX
TAF AMD
KJAX 311939Z 3120/0118 18009KT P6SM VCSH BKN040
      TEMPO 3120/3122 3SM SHRA BKN035
     FM010000 21007KT P6SM SCT050 BKN250
     FM010800 21004KT P6SM BKN005
     FM011300 23008KT P6SM SCT030=

USA.gov is the U.S. government's official web portal to all federal, state and local government web resources and services.